WA6MEM Weather Reports


time (UTC)temp
C
wind
direction
speed
KPH
gust
KPH
rain 1hr
cm
rain 24hr
cm
rain mn
cm
humidity
%
barometer
mb
20260904030504 16 202 3.2 0.0 0.00 0.00 0.03 92 1010.1
20260904030012 17 216 3.2 0.0 0.00 0.00 0.03 92 1010.1
20260904025504 17 154 3.2 0.0 0.00 0.00 0.03 92 1010.0
20260904025004 17 200 1.6 0.0 0.00 0.00 0.03 92 1010.0
20260904024504 17 175 3.2 0.0 0.00 0.00 0.03 92 1010.0
20260904024004 17 185 3.2 0.0 0.00 0.00 0.03 91 1010.0
20260904023504 17 182 3.2 0.0 0.00 0.00 0.03 91 1010.0
20260904023003 17 196 3.2 0.0 0.00 0.00 0.03 91 1010.0
20260904022503 17 171 3.2 0.0 0.00 0.00 0.03 90 1010.0
20260904022004 17 180 3.2 0.0 0.00 0.00 0.03 90 1010.0
20260904021507 17 185 3.2 0.0 0.00 0.00 0.03 89 1010.0
20260904021003 17 161 3.2 0.0 0.00 0.00 0.03 88 1010.1
20260904020506 17 206 1.6 0.0 0.00 0.00 0.03 87 1010.1
20260904020003 17 360 3.2 0.0 0.00 0.00 0.03 87 1010.1
20260904015506 17 182 4.8 0.0 0.00 0.00 0.03 85 1010.2
20260904015002 17 215 3.2 0.0 0.00 0.00 0.03 85 1010.2
20260904014505 18 202 3.2 0.0 0.00 0.00 0.03 85 1010.2
20260904014002 18 197 3.2 0.0 0.00 0.00 0.03 85 1010.1
20260904013501 18 157 4.8 0.0 0.00 0.00 0.03 84 1010.1
20260904013002 18 212 4.8 0.0 0.00 0.00 0.03 83 1010.1
20260904012502 18 227 4.8 0.0 0.00 0.00 0.03 82 1010.1
20260904012002 18 202 4.8 0.0 0.00 0.00 0.03 82 1010.1
20260904011503 19 192 4.8 0.0 0.00 0.00 0.03 82 1010.1
20260904011001 19 163 4.8 0.0 0.00 0.00 0.03 81 1010.0
20260904010503 19 241 4.8 0.0 0.00 0.00 0.03 80 1010.0
20260904010001 20 200 4.8 0.0 0.00 0.00 0.03 80 1010.0
20260904005601 20 205 4.8 0.0 0.00 0.00 0.03 79 1010.1
20260904005100 20 205 4.8 0.0 0.00 0.00 0.03 78 1010.1
20260904004600 20 228 4.8 0.0 0.00 0.00 0.03 79 1010.1
20260904004100 20 360 4.8 0.0 0.00 0.00 0.03 77 1010.2
20260904003559 20 229 6.4 0.0 0.00 0.00 0.03 79 1010.2
20260904003059 20 223 6.4 0.0 0.00 0.00 0.03 78 1010.2
20260904002559 20 233 6.4 0.0 0.00 0.00 0.03 79 1010.3
20260904002059 20 360 8.0 0.0 0.00 0.00 0.03 79 1010.3
20260904001559 20 177 8.0 0.0 0.00 0.00 0.03 79 1010.3
20260904001058 20 203 6.4 0.0 0.00 0.00 0.03 79 1010.3
20260904000601 20 222 6.4 0.0 0.00 0.00 0.03 79 1010.3
20260904000058 20 185 4.8 0.0 0.00 0.00 0.03 79 1010.3
20260903235558 20 142 4.8 0.0 0.00 0.00 0.03 79 1010.4
20260903235057 20 199 6.4 0.0 0.00 0.00 0.03 79 1010.4
20260903234558 21 217 6.4 0.0 0.00 0.00 0.03 79 1010.4
20260903234057 21 216 6.4 0.0 0.00 0.00 0.03 79 1010.4
20260903233556 21 155 4.8 0.0 0.00 0.00 0.03 80 1010.4
20260903233056 20 217 4.8 0.0 0.00 0.00 0.03 81 1010.4
20260903232556 20 150 6.4 0.0 0.00 0.00 0.03 81 1010.5
20260903232056 20 180 8.0 0.0 0.00 0.00 0.03 81 1010.5
20260903231605 20 211 6.4 0.0 0.00 0.00 0.03 80 1010.5
20260903231055 20 177 6.4 0.0 0.00 0.00 0.03 82 1010.6
20260903230555 20 148 6.4 0.0 0.00 0.00 0.03 80 1010.6
20260903230056 20 209 6.4 0.0 0.00 0.00 0.03 79 1010.6
20260903225555 21 150 6.4 0.0 0.00 0.00 0.03 79 1010.7
20260903225054 21 360 6.4 0.0 0.00 0.00 0.03 78 1010.7
20260903224555 21 219 6.4 0.0 0.00 0.00 0.03 80 1010.7
20260903224053 21 360 6.4 0.0 0.00 0.00 0.03 78 1010.9
20260903223554 21 200 6.4 0.0 0.00 0.00 0.03 78 1010.9
20260903223057 21 134 6.4 0.0 0.00 0.00 0.03 79 1010.9
20260903222554 21 202 6.4 0.0 0.00 0.00 0.03 79 1011.1
20260903222053 21 225 6.4 0.0 0.00 0.00 0.03 80 1011.1
20260903221553 21 208 4.8 0.0 0.00 0.00 0.03 80 1011.1
20260903221052 21 129 4.8 0.0 0.00 0.00 0.03 81 1011.2
20260903220552 20 172 4.8 0.0 0.00 0.00 0.03 80 1011.2
20260903220112 20 179 6.4 0.0 0.00 0.00 0.03 80 1011.2
20260903215552 21 172 6.4 0.0 0.00 0.00 0.03 79 1011.2
20260903215050 21 148 4.8 0.0 0.00 0.00 0.03 79 1011.2
20260903214550 21 213 6.4 0.0 0.00 0.00 0.03 80 1011.2
20260903214050 21 190 6.4 0.0 0.00 0.00 0.03 79 1011.2
20260903213552 21 201 4.8 0.0 0.00 0.00 0.03 78 1011.2
20260903213050 21 238 6.4 0.0 0.00 0.00 0.03 79 1011.2
20260903212549 21 240 6.4 0.0 0.00 0.00 0.03 78 1011.3
20260903212050 21 205 4.8 0.0 0.00 0.00 0.03 79 1011.3
20260903211554 21 170 4.8 0.0 0.00 0.00 0.03 80 1011.3
20260903211049 21 229 4.8 0.0 0.00 0.00 0.03 82 1011.4
20260903210548 21 167 4.8 0.0 0.00 0.00 0.03 81 1011.4
20260903210048 21 269 4.8 0.0 0.00 0.00 0.03 81 1011.4
20260903205547 21 232 4.8 0.0 0.00 0.00 0.03 81 1011.5
20260903205051 21 214 6.4 0.0 0.00 0.00 0.03 82 1011.5
20260903204547 21 169 6.4 0.0 0.00 0.00 0.03 82 1011.5
20260903204045 20 159 4.8 0.0 0.00 0.00 0.03 81 1011.6
20260903203545 20 217 4.8 0.0 0.00 0.00 0.03 82 1011.6
20260903203045 20 209 6.4 0.0 0.00 0.00 0.03 81 1011.6
20260903202546 20 183 6.4 0.0 0.00 0.00 0.03 82 1011.7
20260903202045 20 132 6.4 0.0 0.00 0.00 0.03 82 1011.7
20260903201545 20 162 6.4 0.0 0.00 0.00 0.03 82 1011.7
20260903201044 20 217 6.4 0.0 0.00 0.00 0.03 81 1011.8
20260903200547 21 178 4.8 0.0 0.00 0.00 0.03 80 1011.8
20260903200045 21 178 4.8 0.0 0.00 0.00 0.03 81 1011.8
20260903195544 21 219 6.4 0.0 0.00 0.00 0.03 80 1011.9
20260903195044 21 146 6.4 0.0 0.00 0.00 0.03 80 1011.9
20260903194543 21 155 6.4 0.0 0.00 0.00 0.03 79 1011.9
20260903194046 21 190 6.4 0.0 0.00 0.00 0.03 80 1012.0
20260903193542 21 183 6.4 0.0 0.00 0.00 0.03 80 1012.0
20260903193042 21 213 6.4 0.0 0.00 0.00 0.03 79 1012.0
20260903192542 21 163 4.8 0.0 0.00 0.00 0.03 79 1012.2
20260903192044 21 168 6.4 0.0 0.00 0.00 0.03 79 1012.2
20260903191551 21 151 6.4 0.0 0.00 0.00 0.03 79 1012.2
20260903191041 21 168 4.8 0.0 0.00 0.00 0.03 78 1012.4
20260903190541 21 168 4.8 0.0 0.00 0.00 0.03 78 1012.4
20260903190041 21 181 4.8 0.0 0.00 0.00 0.03 78 1012.4
20260903185539 21 162 4.8 0.0 0.00 0.00 0.03 79 1012.5
20260903185039 21 196 4.8 0.0 0.00 0.00 0.03 78 1012.5
20260903184544 21 145 4.8 0.0 0.00 0.00 0.03 79 1012.5
20260903184037 21 167 4.8 0.0 0.00 0.00 0.03 79 1012.8
20260903183536 21 176 6.4 0.0 0.00 0.00 0.03 79 1012.8
20260903183037 21 251 6.4 0.0 0.00 0.00 0.03 78 1012.8
20260903182538 21 148 4.8 0.0 0.00 0.00 0.03 78 1013.0
20260903182037 21 166 6.4 0.0 0.00 0.00 0.03 79 1013.0
20260903181535 20 202 6.4 0.0 0.00 0.00 0.03 79 1013.0
20260903181034 20 150 4.8 0.0 0.00 0.00 0.03 78 1012.9
20260903180534 21 181 4.8 0.0 0.00 0.00 0.03 78 1012.9
20260903180044 20 191 3.2 0.0 0.00 0.00 0.03 81 1012.9
20260903175532 20 177 4.8 0.0 0.00 0.00 0.03 81 1012.8
20260903175030 20 173 3.2 0.0 0.00 0.00 0.03 83 1012.8
20260903174529 20 198 3.2 0.0 0.00 0.00 0.03 84 1012.8
20260903174029 20 200 3.2 0.0 0.00 0.00 0.03 84 1013.1
20260903173525 19 214 3.2 0.0 0.00 0.00 0.03 85 1013.1
20260903173025 19 181 4.8 0.0 0.00 0.00 0.03 85 1013.1
20260903172527 19 251 4.8 0.0 0.00 0.00 0.03 84 1013.1
20260903172024 19 159 4.8 0.0 0.00 0.00 0.03 85 1013.1
20260903171523 18 190 3.2 0.0 0.00 0.00 0.03 86 1013.1
20260903171022 18 235 3.2 0.0 0.00 0.00 0.03 86 1012.9
20260903170521 18 161 3.2 0.0 0.00 0.00 0.03 85 1012.9
20260903170021 18 158 1.6 0.0 0.00 0.00 0.03 86 1012.9
20260903165520 18 165 1.6 0.0 0.00 0.00 0.03 85 1012.9
20260903165020 18 169 3.2 0.0 0.00 0.00 0.03 86 1012.9
20260903164520 18 173 3.2 0.0 0.00 0.00 0.03 86 1012.9
20260903164019 18 198 3.2 0.0 0.00 0.00 0.03 88 1012.8
20260903163517 18 121 1.6 0.0 0.00 0.00 0.03 91 1012.8
20260903163016 18 198 1.6 0.0 0.00 0.00 0.03 91 1012.8
20260903162515 17 181 1.6 0.0 0.00 0.00 0.03 92 1013.0
20260903162014 17 144 1.6 0.0 0.00 0.00 0.03 92 1013.0
20260903161513 17 198 1.6 0.0 0.00 0.00 0.03 93 1013.0
20260903161012 17 189 1.6 0.0 0.00 0.00 0.03 93 1013.0
20260903160512 17 190 1.6 0.0 0.00 0.00 0.03 93 1013.0
20260903160015 16 198 3.2 0.0 0.00 0.00 0.03 93 1013.0
20260903155513 16 204 4.8 0.0 0.00 0.00 0.03 93 1012.9
20260903155011 17 196 3.2 0.0 0.00 0.00 0.03 93 1012.9
20260903154511 17 227 3.2 0.0 0.00 0.00 0.03 94 1012.9
20260903154012 17 186 3.2 0.0 0.00 0.00 0.03 94 1012.8
20260903153510 17 178 1.6 0.0 0.00 0.00 0.03 95 1012.8
20260903153010 17 206 3.2 0.0 0.00 0.00 0.03 95 1012.8
20260903152511 17 123 1.6 0.0 0.00 0.00 0.03 95 1012.8
20260903152011 17 150 1.6 0.0 0.00 0.00 0.03 96 1012.8
20260903151509 17 194 1.6 0.0 0.00 0.00 0.03 96 1012.8
20260903151010 16 172 1.6 0.0 0.00 0.00 0.03 96 1012.9
20260903150511 16 137 1.6 0.0 0.00 0.00 0.03 96 1012.9
20260903150013 16 164 0.0 0.0 0.00 0.00 0.03 97 1012.9
20260903145510 16 190 0.0 0.0 0.00 0.00 0.03 97 1012.9
20260903145009 16 180 0.0 0.0 0.00 0.00 0.03 97 1012.9
20260903144509 16 224 0.0 0.0 0.00 0.00 0.03 96 1012.9
20260903144009 16 153 0.0 0.0 0.00 0.00 0.03 97 1012.7
20260903143508 16 153 0.0 0.0 0.00 0.00 0.03 97 1012.7
20260903143009 16 221 1.6 0.0 0.00 0.00 0.03 97 1012.7
20260903142508 16 180 1.6 0.0 0.00 0.00 0.03 97 1012.5
20260903142008 15 160 0.0 0.0 0.00 0.00 0.03 97 1012.5
20260903141510 15 184 0.0 0.0 0.00 0.00 0.03 96 1012.5
20260903141008 15 169 0.0 0.0 0.00 0.00 0.03 96 1012.4
20260903140508 15 169 0.0 0.0 0.00 0.00 0.03 96 1012.4
20260903140016 15 169 0.0 0.0 0.00 0.00 0.03 96 1012.4
20260903135507 15 169 0.0 0.0 0.00 0.00 0.03 96 1012.4
20260903135011 15 169 0.0 0.0 0.00 0.00 0.03 96 1012.4
20260903134506 15 169 0.0 0.0 0.00 0.00 0.03 96 1012.4
20260903134009 15 169 0.0 0.0 0.00 0.00 0.03 96 1012.3
20260903133506 15 169 0.0 0.0 0.00 0.00 0.03 96 1012.3
20260903133006 15 169 0.0 0.0 0.00 0.00 0.03 96 1012.3
20260903132505 15 169 0.0 0.0 0.00 0.00 0.03 96 1012.4
20260903132005 15 169 0.0 0.0 0.00 0.00 0.03 96 1012.4
20260903131505 15 169 0.0 0.0 0.00 0.00 0.03 96 1012.4
20260903131005 15 169 0.0 0.0 0.00 0.00 0.03 96 1012.2
20260903130504 15 169 0.0 0.0 0.00 0.00 0.03 96 1012.2
20260903130005 15 169 0.0 0.0 0.00 0.00 0.03 96 1012.2
20260903125504 15 202 0.0 0.0 0.00 0.00 0.03 96 1012.2
20260903125006 15 202 1.6 0.0 0.00 0.00 0.03 96 1012.2
20260903124505 15 194 0.0 0.0 0.00 0.00 0.03 96 1012.2
20260903124003 15 190 1.6 0.0 0.00 0.00 0.03 96 1012.1
20260903123505 15 202 1.6 0.0 0.00 0.00 0.03 96 1012.1
20260903123003 15 175 1.6 0.0 0.00 0.00 0.03 96 1012.1
20260903122503 15 190 1.6 0.0 0.00 0.00 0.03 96 1012.1
20260903122002 15 190 1.6 0.0 0.00 0.00 0.03 96 1012.1
20260903121502 15 153 0.0 0.0 0.00 0.00 0.03 96 1012.1
20260903121001 15 196 0.0 0.0 0.00 0.00 0.03 96 1012.1
20260903120503 15 196 0.0 0.0 0.00 0.00 0.03 96 1012.1
20260903120002 16 196 1.6 0.0 0.00 0.00 0.03 96 1012.1
20260903115600 16 196 1.6 0.0 0.00 0.00 0.03 96 1012.1
20260903115100 16 205 1.6 0.0 0.00 0.00 0.03 96 1012.1
20260903114600 16 152 1.6 0.0 0.00 0.00 0.03 96 1012.1
20260903114058 16 197 1.6 0.0 0.00 0.00 0.03 96 1012.3
20260903113600 16 154 1.6 0.0 0.00 0.00 0.03 96 1012.3
20260903113100 16 188 1.6 0.0 0.00 0.00 0.03 96 1012.3
20260903112603 16 184 1.6 0.0 0.00 0.00 0.03 96 1012.3
20260903112058 16 163 1.6 0.0 0.00 0.00 0.03 96 1012.3
20260903111606 16 188 1.6 0.0 0.00 0.00 0.03 96 1012.3
20260903111058 16 183 1.6 0.0 0.00 0.00 0.03 96 1012.2
20260903110601 16 162 1.6 0.0 0.00 0.00 0.03 96 1012.2
20260903110058 16 172 1.6 0.0 0.00 0.00 0.03 95 1012.2
20260903105600 16 194 1.6 0.0 0.00 0.00 0.03 95 1012.2
20260903105057 16 161 1.6 0.0 0.00 0.00 0.03 95 1012.2
20260903104557 16 163 1.6 0.0 0.00 0.00 0.03 95 1012.2
20260903104055 16 174 3.2 0.0 0.00 0.00 0.03 95 1012.3
20260903103555 16 199 3.2 0.0 0.00 0.00 0.03 95 1012.3
20260903103057 16 206 3.2 0.0 0.00 0.00 0.03 95 1012.3
20260903102555 16 196 3.2 0.0 0.00 0.00 0.03 95 1012.4
20260903102056 16 179 3.2 0.0 0.00 0.00 0.03 95 1012.4
20260903101559 16 201 3.2 0.0 0.00 0.00 0.03 95 1012.4
20260903101053 16 175 3.2 0.0 0.00 0.00 0.03 95 1012.2
20260903100553 16 196 3.2 0.0 0.00 0.00 0.03 95 1012.2
20260903100055 16 204 3.2 0.0 0.00 0.00 0.03 95 1012.2
20260903095552 16 175 3.2 0.0 0.00 0.00 0.00 95 1012.2
20260903095052 16 211 3.2 0.0 0.00 0.00 0.00 95 1012.2
20260903094601 16 213 3.2 0.0 0.00 0.00 0.00 95 1012.2
20260903094052 16 204 3.2 0.0 0.00 0.00 0.00 95 1012.3
20260903093551 16 167 4.8 0.0 0.00 0.00 0.00 95 1012.3
20260903093103 16 178 4.8 0.0 0.00 0.00 0.00 95 1012.3
20260903092551 16 158 3.2 0.0 0.00 0.00 0.00 95 1012.4
20260903092051 16 200 3.2 0.0 0.00 0.00 0.00 95 1012.4
20260903091550 16 182 3.2 0.0 0.00 0.00 0.00 95 1012.4
20260903091050 16 198 3.2 0.0 0.00 0.00 0.00 95 1012.7
20260903090550 16 161 3.2 0.0 0.00 0.00 0.00 95 1012.7
20260903090050 16 196 3.2 0.0 0.00 0.00 0.00 95 1012.7
20260903085548 16 196 3.2 0.0 0.00 0.00 0.00 95 1012.9
20260903085049 16 190 3.2 0.0 0.00 0.00 0.00 94 1012.9
20260903084549 16 187 3.2 0.0 0.00 0.00 0.00 94 1012.9
20260903084048 16 192 3.2 0.0 0.00 0.00 0.00 94 1012.9
20260903083548 16 158 3.2 0.0 0.00 0.00 0.00 94 1012.9
20260903083053 16 197 4.8 0.0 0.00 0.00 0.00 94 1012.9
20260903082548 16 184 3.2 0.0 0.00 0.00 0.00 94 1012.9
20260903082148 16 237 3.2 0.0 0.00 0.00 0.00 94 1012.9
20260903081549 16 167 3.2 0.0 0.00 0.00 0.00 94 1012.9
20260903081048 16 143 3.2 0.0 0.00 0.00 0.00 94 1013.0
20260903080548 16 180 3.2 0.0 0.00 0.00 0.00 94 1013.0
20260903080050 16 127 3.2 0.0 0.00 0.00 0.00 94 1013.0
20260903075546 16 163 4.8 0.0 0.00 0.00 0.00 94 1012.9
20260903075045 16 205 4.8 0.0 0.00 0.00 0.00 94 1012.9
20260903074546 17 245 6.4 0.0 0.00 0.00 0.00 93 1012.9
20260903074044 17 257 6.4 0.0 0.00 0.00 0.00 93 1013.0
20260903073544 17 257 8.0 0.0 0.00 0.00 0.00 93 1013.0
20260903073044 17 294 8.0 0.0 0.00 0.00 0.00 93 1013.0
20260903072542 17 306 8.0 0.0 0.00 0.00 0.00 93 1012.9
20260903072042 17 299 8.0 0.0 0.00 0.00 0.00 93 1012.9
20260903071542 17 297 6.4 0.0 0.00 0.00 0.00 93 1012.9
20260903071040 17 256 8.0 0.0 0.00 0.00 0.00 92 1012.9
20260903070544 17 279 8.0 0.0 0.00 0.00 0.00 92 1012.9
20260903070040 17 290 6.4 0.0 0.00 0.00 0.00 92 1012.9
20260903065540 17 245 6.4 0.0 0.00 0.00 0.00 92 1013.0
20260903065039 16 229 6.4 0.0 0.00 0.00 0.00 91 1013.0
20260903064541 16 288 4.8 0.0 0.00 0.00 0.00 91 1013.0
20260903064039 16 302 4.8 0.0 0.00 0.00 0.00 92 1012.8
20260903063539 16 287 4.8 0.0 0.00 0.00 0.00 92 1012.8
20260903063039 16 160 4.8 0.0 0.00 0.00 0.00 93 1012.8
20260903062539 16 196 4.8 0.0 0.00 0.00 0.00 93 1012.9
20260903062039 16 218 4.8 0.0 0.00 0.00 0.00 93 1012.9
20260903061550 16 188 4.8 0.0 0.00 0.00 0.00 93 1012.9
20260903061038 16 180 4.8 0.0 0.00 0.00 0.00 93 1012.8
20260903060538 17 157 4.8 0.0 0.00 0.00 0.00 93 1012.8
20260903060041 17 186 4.8 0.0 0.00 0.00 0.00 93 1012.8
20260903055538 17 214 4.8 0.0 0.00 0.00 0.00 93 1012.8
20260903055037 17 177 4.8 0.0 0.00 0.00 0.00 93 1012.8
20260903054541 17 271 4.8 0.0 0.00 0.00 0.00 93 1012.8
20260903054037 17 185 6.4 0.0 0.00 0.00 0.00 93 1012.7
20260903053537 17 185 8.0 0.0 0.00 0.00 0.00 93 1012.7
20260903053038 17 275 6.4 0.0 0.00 0.00 0.00 93 1012.7
20260903052537 17 284 6.4 0.0 0.00 0.00 0.00 93 1012.8
20260903052037 17 272 8.0 0.0 0.00 0.00 0.00 93 1012.8
20260903051537 17 309 9.7 0.0 0.00 0.00 0.00 93 1012.8
20260903051036 17 308 9.7 0.0 0.00 0.00 0.00 93 1013.1
20260903050536 17 265 6.4 0.0 0.00 0.00 0.00 93 1013.1
20260903050036 17 240 8.0 0.0 0.00 0.00 0.00 92 1013.1
20260903045537 17 238 8.0 0.0 0.00 0.00 0.00 92 1013.1
20260903045041 17 271 6.4 0.0 0.00 0.00 0.00 92 1013.1
20260903044540 17 252 3.2 0.0 0.00 0.00 0.00 92 1013.1
20260903044042 17 265 1.6 0.0 0.00 0.00 0.00 91 1013.1
20260903043537 17 149 1.6 0.0 0.00 0.00 0.00 91 1013.1
20260903043042 17 79 1.6 0.0 0.00 0.00 0.00 91 1013.1
20260903042535 17 139 1.6 0.0 0.00 0.00 0.00 91 1012.9
20260903042037 17 171 3.2 0.0 0.00 0.00 0.00 91 1012.9
20260903041535 17 128 3.2 0.0 0.00 0.00 0.00 91 1012.9
20260903041035 17 157 3.2 0.0 0.00 0.00 0.00 90 1013.0
20260903040535 17 208 4.8 0.0 0.00 0.00 0.00 90 1013.0
20260903040035 17 182 4.8 0.0 0.00 0.00 0.00 90 1013.0
20260903035534 17 192 3.2 0.0 0.00 0.00 0.00 89 1012.9
20260903035034 17 146 3.2 0.0 0.00 0.00 0.00 88 1012.9
20260903034542 17 207 3.2 0.0 0.00 0.00 0.00 88 1012.9
20260903034034 16 155 3.2 0.0 0.00 0.00 0.00 88 1012.8
20260903033536 16 195 3.2 0.0 0.00 0.00 0.00 87 1012.8
20260903033033 16 147 3.2 0.0 0.00 0.00 0.00 88 1012.8
20260903032535 16 192 1.6 0.0 0.00 0.00 0.00 87 1012.8
20260903032034 17 150 1.6 0.0 0.00 0.00 0.00 87 1012.8
20260903031533 17 169 3.2 0.0 0.00 0.00 0.00 87 1012.8
20260903031034 17 195 3.2 0.0 0.00 0.00 0.00 87 1012.8
20260903030534 17 169 3.2 0.0 0.00 0.00 0.00 87 1012.8